Weather History for New Bern, NC

Change the Weather History Date:

Saturday, June 7, 2014

  Actual Average Record
Temperature  
Mean Temperature 76 °F 75 °F  
Max Temperature 86 °F 85 °F 98 °F (2008)
Min Temperature 65 °F 65 °F 54 °F (1976)
Degree Days  
Heating Degree Days 0 0  
Month to date heating degree days 0 0  
Since 1 June heating degree days 0 0  
Since 1 July heating degree days 2637 2701  
Cooling Degree Days 11 10  
Month to date cooling degree days 69 67  
Year to date cooling degree days 430 310  
Since 1 June cooling degree days 69 67  
Growing Degree Days 25 (Base 50)    
Moisture  
Dew Point 60 °F    
Average Humidity 64    
Maximum Humidity 87    
Minimum Humidity 40    
Precipitation  
Precipitation 0.00 in 0.15 in 1.51 in (2013)
Month to date precipitation 0.23 1.04  
Year to date precipitation 18.11 20.43  
Snow  
Snow 0.00 in - - ()
Month to date snowfall 0.0  
Since 1 July snowfall 14.0  
Snow Depth 0.00 in    
Sea Level Pressure  
Sea Level Pressure 29.99 in    
Wind  
Wind Speed 6 mph (NE)    
Max Wind Speed 15 mph    
Max Gust Speed 20 mph    
Visibility 10 miles    
Events      
T = Trace of Precipitation, MM = Missing Value Source: NWS Daily Summary

Daily Weather History Graph

Daily Weather History Graph

Search for Another Location

Airport:

Trip Planner

Search our weather history database for the weather conditions in past years. The results will help you decide how hot, cold, wet, or windy it might be!

Date:

Astronomy

Jun. 07, 2014 Rise Set
Actual Time 5:53 AM EDT 8:20 PM EDT
Civil Twilight 5:24 AM EDT 8:50 PM EDT
Nautical Twilight 4:48 AM EDT 9:26 PM EDT
Astronomical Twilight 4:08 AM EDT 10:06 PM EDT
Moon 2:47 PM EDT (6/7) 2:01 AM EDT (6/7)
Length of Visible Light 15h 25m
Length of Day
14h 26m
Waxing Gibbous, 67% of the Moon is Illuminated
Jun 7
Waxing Gibbous
Jun 13
Full
Jun 19
Last Quarter
Jun 27
New
Jul 5
First Quarter

Hourly Weather History & Observations

Time (EDT) Temp. Heat Index Dew Point Humidity Pressure Visibility Wind Dir Wind Speed Gust Speed Precip Events Conditions
12:54 AM 71.1 °F - 64.0 °F 78% 29.97 in 10.0 mi ENE 4.6 mph - N/A   Clear
1:54 AM 71.1 °F - 64.9 °F 81% 29.97 in 10.0 mi NE 4.6 mph - N/A   Mostly Cloudy
2:54 AM 69.1 °F - 64.0 °F 84% 29.96 in 10.0 mi NNE 4.6 mph - N/A   Clear
3:54 AM 66.9 °F - 63.0 °F 87% 29.96 in 10.0 mi Calm Calm - N/A   Clear
4:54 AM 66.9 °F - 63.0 °F 87% 29.96 in 10.0 mi NE 4.6 mph - N/A   Clear
5:54 AM 66.9 °F - 62.1 °F 84% 29.96 in 10.0 mi NE 3.5 mph - N/A   Clear
6:54 AM 70.0 °F - 63.0 °F 78% 29.98 in 10.0 mi ENE 3.5 mph - N/A   Clear
9:54 AM 79.0 °F - 62.1 °F 56% 30.02 in 10.0 mi NE 6.9 mph - N/A   Clear
10:54 AM 80.1 °F 80.7 °F 59.0 °F 48% 30.02 in 10.0 mi ENE 9.2 mph - N/A   Clear
11:54 AM 81.0 °F 81.1 °F 57.9 °F 45% 30.02 in 10.0 mi NE 8.1 mph - N/A   Clear
12:54 PM 82.0 °F 81.4 °F 55.0 °F 39% 30.01 in 10.0 mi NE 8.1 mph 17.3 mph N/A   Clear
1:54 PM 84.0 °F 83.3 °F 57.0 °F 40% 30.00 in 10.0 mi Variable 6.9 mph - N/A   Partly Cloudy
2:54 PM 84.9 °F 84.2 °F 57.9 °F 40% 29.98 in 10.0 mi North 8.1 mph - N/A   Scattered Clouds
3:54 PM 82.9 °F 82.1 °F 55.9 °F 39% 29.98 in 10.0 mi NNE 11.5 mph - N/A   Scattered Clouds
4:54 PM 82.9 °F 82.4 °F 57.0 °F 41% 29.97 in 10.0 mi NE 9.2 mph - N/A   Clear
5:54 PM 81.0 °F 81.7 °F 61.0 °F 50% 29.98 in 10.0 mi East 8.1 mph - N/A   Scattered Clouds
6:54 PM 78.1 °F - 61.0 °F 56% 29.99 in 10.0 mi ESE 10.4 mph - N/A   Clear
7:54 PM 75.0 °F - 60.1 °F 60% 30.00 in 10.0 mi East 5.8 mph - N/A   Scattered Clouds
8:54 PM 73.0 °F - 60.1 °F 64% 30.00 in 10.0 mi ESE 6.9 mph - N/A   Clear
9:54 PM 72.0 °F - 60.1 °F 66% 30.02 in 10.0 mi Calm Calm - N/A   Clear
10:54 PM 70.0 °F - 59.0 °F 68% 30.02 in 10.0 mi Calm Calm - N/A   Clear
11:54 PM 66.0 °F - 59.0 °F 78% 30.00 in 10.0 mi Calm Calm - N/A   Clear